Year,Month,Day,Hour,Minute,Value (Times are PST for temperature in C)
2015,06,27,00,00,19.00
2015,06,27,00,01,19.00
2015,06,27,00,02,18.90
2015,06,27,00,03,18.90
2015,06,27,00,04,18.90
2015,06,27,00,05,18.90
2015,06,27,00,06,18.90
2015,06,27,00,07,18.90
2015,06,27,00,08,18.90
2015,06,27,00,09,18.90
2015,06,27,00,10,18.90
2015,06,27,00,11,18.80
2015,06,27,00,12,18.80
2015,06,27,00,13,18.80
2015,06,27,00,14,18.80
2015,06,27,00,15,18.80
2015,06,27,00,16,18.80
2015,06,27,00,17,18.80
2015,06,27,00,18,18.80
2015,06,27,00,19,18.80
2015,06,27,00,20,18.80
2015,06,27,00,21,18.80
2015,06,27,00,22,18.80
2015,06,27,00,23,18.70
2015,06,27,00,24,18.70
2015,06,27,00,25,18.70
2015,06,27,00,26,18.60
2015,06,27,00,27,18.60
2015,06,27,00,28,18.50
2015,06,27,00,29,18.50
2015,06,27,00,30,18.50
2015,06,27,00,31,18.40
2015,06,27,00,32,18.40
2015,06,27,00,33,18.30
2015,06,27,00,34,18.30
2015,06,27,00,35,18.30
2015,06,27,00,36,18.30
2015,06,27,00,37,18.30
2015,06,27,00,38,18.20
2015,06,27,00,39,18.20
2015,06,27,00,40,18.20
2015,06,27,00,41,18.20
2015,06,27,00,42,18.20
2015,06,27,00,43,18.20
2015,06,27,00,44,18.10
2015,06,27,00,45,18.10
2015,06,27,00,46,18.10
2015,06,27,00,47,18.10
2015,06,27,00,48,18.10
2015,06,27,00,49,18.00
2015,06,27,00,50,18.00
2015,06,27,00,51,18.00
2015,06,27,00,52,18.00
2015,06,27,00,53,18.00
2015,06,27,00,54,18.00
2015,06,27,00,55,17.90
2015,06,27,00,56,18.00
2015,06,27,00,57,18.00
2015,06,27,00,58,18.00
2015,06,27,00,59,18.00
2015,06,27,01,00,18.00
2015,06,27,01,01,18.00
2015,06,27,01,02,18.00
2015,06,27,01,03,18.00
2015,06,27,01,04,17.90
2015,06,27,01,05,17.90
2015,06,27,01,06,17.90
2015,06,27,01,07,17.90
2015,06,27,01,08,17.90
2015,06,27,01,09,17.80
2015,06,27,01,10,17.80
2015,06,27,01,11,17.80
2015,06,27,01,12,17.80
2015,06,27,01,13,17.80
2015,06,27,01,14,17.80
2015,06,27,01,15,17.80
2015,06,27,01,16,17.80
2015,06,27,01,17,17.80
2015,06,27,01,18,17.80
2015,06,27,01,19,17.80
2015,06,27,01,20,17.80
2015,06,27,01,21,17.80
2015,06,27,01,22,17.80
2015,06,27,01,23,17.70
2015,06,27,01,24,17.70
2015,06,27,01,25,17.70
2015,06,27,01,26,17.70
2015,06,27,01,27,17.60
2015,06,27,01,28,17.60
2015,06,27,01,29,17.60
2015,06,27,01,30,17.60
2015,06,27,01,31,17.60
2015,06,27,01,32,17.60
2015,06,27,01,33,17.70
2015,06,27,01,34,17.70
2015,06,27,01,35,17.70
2015,06,27,01,36,17.70
2015,06,27,01,37,17.70
2015,06,27,01,38,17.70
2015,06,27,01,39,17.70
2015,06,27,01,40,17.70
2015,06,27,01,41,17.70
2015,06,27,01,42,17.70
2015,06,27,01,43,17.70
2015,06,27,01,44,17.70
2015,06,27,01,45,17.70
2015,06,27,01,46,17.70
2015,06,27,01,47,17.70
2015,06,27,01,48,17.70
2015,06,27,01,49,17.70
2015,06,27,01,50,17.70
2015,06,27,01,51,17.70
2015,06,27,01,52,17.70
2015,06,27,01,53,17.70
2015,06,27,01,54,17.70
2015,06,27,01,55,17.70
2015,06,27,01,56,17.70
2015,06,27,01,57,17.70
2015,06,27,01,58,17.70
2015,06,27,01,59,17.70
2015,06,27,02,00,17.70
2015,06,27,02,01,17.70
2015,06,27,02,02,17.70
2015,06,27,02,03,17.70
2015,06,27,02,04,17.70
2015,06,27,02,05,17.70
2015,06,27,02,06,17.70
2015,06,27,02,07,17.60
2015,06,27,02,08,17.60
2015,06,27,02,09,17.60
2015,06,27,02,10,17.60
2015,06,27,02,11,17.60
2015,06,27,02,12,17.60
2015,06,27,02,13,17.60
2015,06,27,02,14,17.60
2015,06,27,02,15,17.60
2015,06,27,02,16,17.60
2015,06,27,02,17,17.70
2015,06,27,02,18,17.70
2015,06,27,02,19,17.60
2015,06,27,02,20,17.60
2015,06,27,02,21,17.60
2015,06,27,02,22,17.60
2015,06,27,02,23,17.60
2015,06,27,02,24,17.60
2015,06,27,02,25,17.60
2015,06,27,02,26,17.50
2015,06,27,02,27,17.50
2015,06,27,02,28,17.50
2015,06,27,02,29,17.40
2015,06,27,02,30,17.40
2015,06,27,02,31,17.40
2015,06,27,02,32,17.40
2015,06,27,02,33,17.40
2015,06,27,02,34,17.40
2015,06,27,02,35,17.30
2015,06,27,02,36,17.30
2015,06,27,02,37,17.30
2015,06,27,02,38,17.30
2015,06,27,02,39,17.30
2015,06,27,02,40,17.30
2015,06,27,02,41,17.20
2015,06,27,02,42,17.20
2015,06,27,02,43,17.20
2015,06,27,02,44,17.20
2015,06,27,02,45,17.20
2015,06,27,02,46,17.20
2015,06,27,02,47,17.10
2015,06,27,02,48,17.10
2015,06,27,02,49,17.10
2015,06,27,02,50,17.10
2015,06,27,02,51,17.10
2015,06,27,02,52,17.10
2015,06,27,02,53,17.10
2015,06,27,02,54,17.10
2015,06,27,02,55,17.10
2015,06,27,02,56,17.10
2015,06,27,02,57,17.10
2015,06,27,02,58,17.10
2015,06,27,02,59,17.10
2015,06,27,03,00,17.10
2015,06,27,03,01,17.10
2015,06,27,03,02,17.20
2015,06,27,03,03,17.10
2015,06,27,03,04,17.10
2015,06,27,03,05,17.10
2015,06,27,03,06,17.10
2015,06,27,03,07,17.10
2015,06,27,03,08,17.00
2015,06,27,03,09,17.00
2015,06,27,03,10,16.90
2015,06,27,03,11,16.90
2015,06,27,03,12,16.90
2015,06,27,03,13,16.90
2015,06,27,03,14,16.80
2015,06,27,03,15,16.80
2015,06,27,03,16,16.80
2015,06,27,03,17,16.80
2015,06,27,03,18,16.80
2015,06,27,03,19,16.70
2015,06,27,03,20,16.70
2015,06,27,03,21,16.70
2015,06,27,03,22,16.70
2015,06,27,03,23,16.70
2015,06,27,03,24,16.70
2015,06,27,03,25,16.60
2015,06,27,03,26,16.60
2015,06,27,03,27,16.60
2015,06,27,03,28,16.60
2015,06,27,03,29,16.50
2015,06,27,03,30,16.50
2015,06,27,03,31,16.50
2015,06,27,03,32,16.50
2015,06,27,03,33,16.40
2015,06,27,03,34,16.40
2015,06,27,03,35,16.40
2015,06,27,03,36,16.40
2015,06,27,03,37,16.40
2015,06,27,03,38,16.40
2015,06,27,03,39,16.40
2015,06,27,03,40,16.40
2015,06,27,03,41,16.40
2015,06,27,03,42,16.40
2015,06,27,03,43,16.40
2015,06,27,03,44,16.40
2015,06,27,03,45,16.40
2015,06,27,03,46,16.40
2015,06,27,03,47,16.40
2015,06,27,03,48,16.40
2015,06,27,03,49,16.40
2015,06,27,03,50,16.40
2015,06,27,03,51,16.40
2015,06,27,03,52,16.40
2015,06,27,03,53,16.40
2015,06,27,03,54,16.40
2015,06,27,03,55,16.40
2015,06,27,03,56,16.40
2015,06,27,03,57,16.40
2015,06,27,03,58,16.40
2015,06,27,03,59,16.40
2015,06,27,04,00,16.40
2015,06,27,04,01,16.40
2015,06,27,04,02,16.40
2015,06,27,04,03,16.40
2015,06,27,04,04,16.40
2015,06,27,04,05,16.40
2015,06,27,04,06,16.40
2015,06,27,04,07,16.40
2015,06,27,04,08,16.50
2015,06,27,04,09,16.50
2015,06,27,04,10,16.50
2015,06,27,04,11,16.60
2015,06,27,04,12,16.60
2015,06,27,04,13,16.60
2015,06,27,04,14,16.60
2015,06,27,04,15,16.60
2015,06,27,04,16,16.60
2015,06,27,04,17,16.60
2015,06,27,04,18,16.60
2015,06,27,04,19,16.70
2015,06,27,04,20,16.70
2015,06,27,04,21,16.70
2015,06,27,04,22,16.70
2015,06,27,04,23,16.70
2015,06,27,04,24,16.70
2015,06,27,04,25,16.70
2015,06,27,04,26,16.70
2015,06,27,04,27,16.70
2015,06,27,04,28,16.70
2015,06,27,04,29,16.70
2015,06,27,04,30,16.70
2015,06,27,04,31,16.70
2015,06,27,04,32,16.70
2015,06,27,04,33,16.70
2015,06,27,04,34,16.70
2015,06,27,04,35,16.70
2015,06,27,04,36,16.70
2015,06,27,04,37,16.70
2015,06,27,04,38,16.80
2015,06,27,04,39,16.80
2015,06,27,04,40,16.80
2015,06,27,04,41,16.80
2015,06,27,04,42,16.80
2015,06,27,04,43,16.80
2015,06,27,04,44,16.80
2015,06,27,04,45,16.80
2015,06,27,04,46,16.80
2015,06,27,04,47,16.80
2015,06,27,04,48,16.80
2015,06,27,04,49,16.80
2015,06,27,04,50,16.80
2015,06,27,04,51,16.80
2015,06,27,04,52,16.80
2015,06,27,04,53,16.80
2015,06,27,04,54,16.70
2015,06,27,04,55,16.70
2015,06,27,04,56,16.70
2015,06,27,04,57,16.70
2015,06,27,04,58,16.70
2015,06,27,04,59,16.60
2015,06,27,05,00,16.60
2015,06,27,05,01,16.60
2015,06,27,05,02,16.60
2015,06,27,05,03,16.50
2015,06,27,05,04,16.50
2015,06,27,05,05,16.50
2015,06,27,05,06,16.40
2015,06,27,05,07,16.40
2015,06,27,05,08,16.40
2015,06,27,05,09,16.40
2015,06,27,05,10,16.40
2015,06,27,05,11,16.40
2015,06,27,05,12,16.30
2015,06,27,05,13,16.30
2015,06,27,05,14,16.30
2015,06,27,05,15,16.30
2015,06,27,05,16,16.30
2015,06,27,05,17,16.20
2015,06,27,05,18,16.20
2015,06,27,05,19,16.20
2015,06,27,05,20,16.20
2015,06,27,05,21,16.20
2015,06,27,05,22,16.20
2015,06,27,05,23,16.20
2015,06,27,05,24,16.20
2015,06,27,05,25,16.20
2015,06,27,05,26,16.10
2015,06,27,05,27,16.10
2015,06,27,05,28,16.10
2015,06,27,05,29,16.10
2015,06,27,05,30,16.10
2015,06,27,05,31,16.00
2015,06,27,05,32,16.00
2015,06,27,05,33,16.00
2015,06,27,05,34,15.90
2015,06,27,05,35,15.90
2015,06,27,05,36,15.90
2015,06,27,05,37,15.90
2015,06,27,05,38,15.90
2015,06,27,05,39,15.90
2015,06,27,05,40,15.90
2015,06,27,05,41,15.90
2015,06,27,05,42,16.00
2015,06,27,05,43,16.00
2015,06,27,05,44,16.00
2015,06,27,05,45,16.00
2015,06,27,05,46,16.00
2015,06,27,05,47,16.00
2015,06,27,05,48,15.90
2015,06,27,05,49,15.90
2015,06,27,05,50,15.90
2015,06,27,05,51,15.90
2015,06,27,05,52,15.90
2015,06,27,05,53,15.90
2015,06,27,05,54,15.80
2015,06,27,05,55,15.80
2015,06,27,05,56,15.80
2015,06,27,05,57,15.80
2015,06,27,05,58,15.80
2015,06,27,05,59,15.80
2015,06,27,06,00,15.80
2015,06,27,06,01,15.80
2015,06,27,06,02,15.80
2015,06,27,06,03,15.80
2015,06,27,06,04,15.70
2015,06,27,06,05,15.70
2015,06,27,06,06,15.70
2015,06,27,06,07,15.70
2015,06,27,06,08,15.70
2015,06,27,06,09,15.70
2015,06,27,06,10,15.70
2015,06,27,06,11,15.70
2015,06,27,06,12,15.70
2015,06,27,06,13,15.70
2015,06,27,06,14,15.70
2015,06,27,06,15,15.70
2015,06,27,06,16,15.70
2015,06,27,06,17,15.80
2015,06,27,06,18,15.80
2015,06,27,06,19,15.80
2015,06,27,06,20,15.90
2015,06,27,06,21,15.90
2015,06,27,06,22,16.00
2015,06,27,06,23,16.00
2015,06,27,06,24,16.10
2015,06,27,06,25,16.10
2015,06,27,06,26,16.20
2015,06,27,06,27,16.20
2015,06,27,06,28,16.30
2015,06,27,06,29,16.50
2015,06,27,06,30,16.60
2015,06,27,06,31,16.70
2015,06,27,06,32,16.80
2015,06,27,06,33,16.90
2015,06,27,06,34,17.00
2015,06,27,06,35,17.10
2015,06,27,06,36,17.20
2015,06,27,06,37,17.30
2015,06,27,06,38,17.40
2015,06,27,06,39,17.50
2015,06,27,06,40,17.50
2015,06,27,06,41,17.60
2015,06,27,06,42,17.60
2015,06,27,06,43,17.60
2015,06,27,06,44,17.70
2015,06,27,06,45,17.70
2015,06,27,06,46,17.70
2015,06,27,06,47,17.70
2015,06,27,06,48,17.70
2015,06,27,06,49,17.70
2015,06,27,06,50,17.80
2015,06,27,06,51,17.80
2015,06,27,06,52,17.80
2015,06,27,06,53,17.80
2015,06,27,06,54,17.80
2015,06,27,06,55,17.80
2015,06,27,06,56,17.90
2015,06,27,06,57,17.90
2015,06,27,06,58,17.90
2015,06,27,06,59,17.90
2015,06,27,07,00,18.00
2015,06,27,07,01,18.00
2015,06,27,07,02,18.00
2015,06,27,07,03,18.10
2015,06,27,07,04,18.10
2015,06,27,07,05,18.10
2015,06,27,07,06,18.10
2015,06,27,07,07,18.00
2015,06,27,07,08,18.00
2015,06,27,07,09,18.00
2015,06,27,07,10,18.00
2015,06,27,07,11,18.00
2015,06,27,07,12,18.00
2015,06,27,07,13,18.10
2015,06,27,07,14,18.10
2015,06,27,07,15,18.10
2015,06,27,07,16,18.20
2015,06,27,07,17,18.20
2015,06,27,07,18,18.20
2015,06,27,07,19,18.30
2015,06,27,07,20,18.30
2015,06,27,07,21,18.30
2015,06,27,07,22,18.30
2015,06,27,07,23,18.30
2015,06,27,07,24,18.40
2015,06,27,07,25,18.40
2015,06,27,07,26,18.40
2015,06,27,07,27,18.40
2015,06,27,07,28,18.50
2015,06,27,07,29,18.50
2015,06,27,07,30,18.60
2015,06,27,07,31,18.60
2015,06,27,07,32,18.70
2015,06,27,07,33,18.80
2015,06,27,07,34,18.80
2015,06,27,07,35,18.90
2015,06,27,07,36,19.00
2015,06,27,07,37,19.10
2015,06,27,07,38,19.20
2015,06,27,07,39,19.20
2015,06,27,07,40,19.30
2015,06,27,07,41,19.30
2015,06,27,07,42,19.40
2015,06,27,07,43,19.40
2015,06,27,07,44,19.50
2015,06,27,07,45,19.60
2015,06,27,07,46,19.60
2015,06,27,07,47,19.70
2015,06,27,07,48,19.80
2015,06,27,07,49,19.80
2015,06,27,07,50,19.90
2015,06,27,07,51,20.00
2015,06,27,07,52,20.00
2015,06,27,07,53,20.10
2015,06,27,07,54,20.10
2015,06,27,07,55,20.20
2015,06,27,07,56,20.20
2015,06,27,07,57,20.30
2015,06,27,07,58,20.30
2015,06,27,07,59,20.30
2015,06,27,08,00,20.30
2015,06,27,08,01,20.40
2015,06,27,08,02,20.40
2015,06,27,08,03,20.40
2015,06,27,08,04,20.50
2015,06,27,08,05,20.50
2015,06,27,08,06,20.60
2015,06,27,08,07,20.60
2015,06,27,08,08,20.60
2015,06,27,08,09,20.70
2015,06,27,08,10,20.70
2015,06,27,08,11,20.70
2015,06,27,08,12,20.80
2015,06,27,08,13,20.80
2015,06,27,08,14,20.90
2015,06,27,08,15,21.00
2015,06,27,08,16,21.10
2015,06,27,08,17,21.10
2015,06,27,08,18,21.20
2015,06,27,08,19,21.20
2015,06,27,08,20,21.30
2015,06,27,08,21,21.30
2015,06,27,08,22,21.30
2015,06,27,08,23,21.40
2015,06,27,08,24,21.40
2015,06,27,08,25,21.50
2015,06,27,08,26,21.50
2015,06,27,08,27,21.60
2015,06,27,08,28,21.60
2015,06,27,08,29,21.70
2015,06,27,08,30,21.80
2015,06,27,08,31,21.80
2015,06,27,08,32,21.90
2015,06,27,08,33,22.00
2015,06,27,08,34,22.00
2015,06,27,08,35,22.10
2015,06,27,08,36,22.10
2015,06,27,08,37,22.20
2015,06,27,08,38,22.20
2015,06,27,08,39,22.20
2015,06,27,08,40,22.30
2015,06,27,08,41,22.30
2015,06,27,08,42,22.40
2015,06,27,08,43,22.50
2015,06,27,08,44,22.60
2015,06,27,08,45,22.70
2015,06,27,08,46,22.80
2015,06,27,08,47,22.80
2015,06,27,08,48,22.90
2015,06,27,08,49,22.90
2015,06,27,08,50,22.90
2015,06,27,08,51,22.90
2015,06,27,08,52,22.90
2015,06,27,08,53,22.90
2015,06,27,08,54,23.00
2015,06,27,08,55,23.10
2015,06,27,08,56,23.10
2015,06,27,08,57,23.20
2015,06,27,08,58,23.30
2015,06,27,08,59,23.30
2015,06,27,09,00,23.40
2015,06,27,09,01,23.50
2015,06,27,09,02,23.60
2015,06,27,09,03,23.60
2015,06,27,09,04,23.70
2015,06,27,09,05,23.70
2015,06,27,09,06,23.70
2015,06,27,09,07,23.70
2015,06,27,09,08,23.70
2015,06,27,09,09,23.70
2015,06,27,09,10,23.70
2015,06,27,09,11,23.70
2015,06,27,09,12,23.70
2015,06,27,09,13,23.70
2015,06,27,09,14,23.70
2015,06,27,09,15,23.70
2015,06,27,09,16,23.70
2015,06,27,09,17,23.70
2015,06,27,09,18,23.80
2015,06,27,09,19,23.80
2015,06,27,09,20,23.80
2015,06,27,09,21,23.80
2015,06,27,09,22,23.90
2015,06,27,09,23,23.90
2015,06,27,09,24,23.90
2015,06,27,09,25,23.90
2015,06,27,09,26,24.00
2015,06,27,09,27,24.00
2015,06,27,09,28,24.10
2015,06,27,09,29,24.00
2015,06,27,09,30,24.00
2015,06,27,09,31,23.90
2015,06,27,09,32,23.80
2015,06,27,09,33,23.70
2015,06,27,09,34,23.50
2015,06,27,09,35,23.40
2015,06,27,09,36,23.20
2015,06,27,09,37,23.10
2015,06,27,09,38,23.00
2015,06,27,09,39,22.90
2015,06,27,09,40,22.80
2015,06,27,09,41,22.80
2015,06,27,09,42,22.80
2015,06,27,09,43,22.80
2015,06,27,09,44,22.80
2015,06,27,09,45,22.80
2015,06,27,09,46,22.70
2015,06,27,09,47,22.70
2015,06,27,09,48,22.70
2015,06,27,09,49,22.70
2015,06,27,09,50,22.70
2015,06,27,09,51,22.70
2015,06,27,09,52,22.70
2015,06,27,09,53,22.80
2015,06,27,09,54,22.80
2015,06,27,09,55,22.80
2015,06,27,09,56,22.80
2015,06,27,09,57,22.80
2015,06,27,09,58,22.60
2015,06,27,09,59,22.40
2015,06,27,10,00,22.10
2015,06,27,10,01,21.80
2015,06,27,10,02,21.60
2015,06,27,10,03,21.30
2015,06,27,10,04,21.10
2015,06,27,10,05,20.70
2015,06,27,10,06,20.40
2015,06,27,10,07,20.20
2015,06,27,10,08,20.00
2015,06,27,10,09,19.70
2015,06,27,10,10,19.40
2015,06,27,10,11,19.20
2015,06,27,10,12,19.10
2015,06,27,10,13,19.00
2015,06,27,10,14,18.90
2015,06,27,10,15,18.80
2015,06,27,10,16,18.80
2015,06,27,10,17,18.80
2015,06,27,10,18,18.80
2015,06,27,10,19,18.80
2015,06,27,10,20,18.80
2015,06,27,10,21,18.80
2015,06,27,10,22,18.80
2015,06,27,10,23,18.80
2015,06,27,10,24,18.80
2015,06,27,10,25,18.80
2015,06,27,10,26,18.80
2015,06,27,10,27,18.90
2015,06,27,10,28,18.90
2015,06,27,10,29,18.90
2015,06,27,10,30,18.90
2015,06,27,10,31,18.90
2015,06,27,10,32,18.90
2015,06,27,10,33,19.00
2015,06,27,10,34,19.00
2015,06,27,10,35,19.10
2015,06,27,10,36,19.10
2015,06,27,10,37,19.20
2015,06,27,10,38,19.30
2015,06,27,10,39,19.40
2015,06,27,10,40,19.50
2015,06,27,10,41,19.60
2015,06,27,10,42,19.70
2015,06,27,10,43,19.80
2015,06,27,10,44,19.90
2015,06,27,10,45,20.00
2015,06,27,10,46,20.20
2015,06,27,10,47,20.40
2015,06,27,10,48,20.50
2015,06,27,10,49,20.70
2015,06,27,10,50,20.90
2015,06,27,10,51,21.20
2015,06,27,10,52,21.40
2015,06,27,10,53,21.60
2015,06,27,10,54,21.80
2015,06,27,10,55,22.00
2015,06,27,10,56,22.10
2015,06,27,10,57,22.30
2015,06,27,10,58,22.50
2015,06,27,10,59,22.60
2015,06,27,11,00,22.70
2015,06,27,11,01,22.80
2015,06,27,11,02,22.90
2015,06,27,11,03,23.10
2015,06,27,11,04,23.20
2015,06,27,11,05,23.30
2015,06,27,11,06,23.30
2015,06,27,11,07,23.50
2015,06,27,11,08,23.60
2015,06,27,11,09,23.70
2015,06,27,11,10,23.80
2015,06,27,11,11,23.90
2015,06,27,11,12,24.00
2015,06,27,11,13,24.10
2015,06,27,11,14,24.20
2015,06,27,11,15,24.30
2015,06,27,11,16,24.50
2015,06,27,11,17,24.60
2015,06,27,11,18,24.70
2015,06,27,11,19,24.90
2015,06,27,11,20,25.00
2015,06,27,11,21,25.10
2015,06,27,11,22,25.20
2015,06,27,11,23,25.20
2015,06,27,11,24,25.30
2015,06,27,11,25,25.40
2015,06,27,11,26,25.40
2015,06,27,11,27,25.30
2015,06,27,11,28,25.20
2015,06,27,11,29,25.20
2015,06,27,11,30,25.20
2015,06,27,11,31,25.20
2015,06,27,11,32,25.10
2015,06,27,11,33,25.10
2015,06,27,11,34,25.00
2015,06,27,11,35,24.90
2015,06,27,11,36,24.90
2015,06,27,11,37,24.90
2015,06,27,11,38,24.90
2015,06,27,11,39,24.90
2015,06,27,11,40,24.90
2015,06,27,11,41,24.90
2015,06,27,11,42,24.90
2015,06,27,11,43,25.00
2015,06,27,11,44,25.00
2015,06,27,11,45,25.10
2015,06,27,11,46,25.20
2015,06,27,11,47,25.20
2015,06,27,11,48,25.20
2015,06,27,11,49,25.20
2015,06,27,11,50,25.30
2015,06,27,11,51,25.30
2015,06,27,11,52,25.40
2015,06,27,11,53,25.40
2015,06,27,11,54,25.40
2015,06,27,11,55,25.40
2015,06,27,11,56,25.40
2015,06,27,11,57,25.40
2015,06,27,11,58,25.30
2015,06,27,11,59,25.30
2015,06,27,12,00,25.30
2015,06,27,12,01,25.30
2015,06,27,12,02,25.30
2015,06,27,12,03,25.30
2015,06,27,12,04,25.20
2015,06,27,12,05,25.20
2015,06,27,12,06,25.30
2015,06,27,12,07,25.30
2015,06,27,12,08,25.30
2015,06,27,12,09,25.30
2015,06,27,12,10,25.30
2015,06,27,12,11,25.40
2015,06,27,12,12,25.40
2015,06,27,12,13,25.50
2015,06,27,12,14,25.60
2015,06,27,12,15,25.70
2015,06,27,12,16,25.80
2015,06,27,12,17,25.80
2015,06,27,12,18,25.80
2015,06,27,12,19,25.80
2015,06,27,12,20,25.90
2015,06,27,12,21,25.90
2015,06,27,12,22,26.00
2015,06,27,12,23,26.00
2015,06,27,12,24,26.00
2015,06,27,12,25,26.00
2015,06,27,12,26,26.00
2015,06,27,12,27,26.10
2015,06,27,12,28,26.20
2015,06,27,12,29,26.30
2015,06,27,12,30,26.30
2015,06,27,12,31,26.40
2015,06,27,12,32,26.50
2015,06,27,12,33,26.60
2015,06,27,12,34,26.60
2015,06,27,12,35,26.70
2015,06,27,12,36,26.60
2015,06,27,12,37,26.60
2015,06,27,12,38,26.60
2015,06,27,12,39,26.60
2015,06,27,12,40,26.60
2015,06,27,12,41,26.60
2015,06,27,12,42,26.60
2015,06,27,12,43,26.70
2015,06,27,12,44,26.70
2015,06,27,12,45,26.80
2015,06,27,12,46,26.90
2015,06,27,12,47,26.90
2015,06,27,12,48,27.00
2015,06,27,12,49,27.00
2015,06,27,12,50,26.90
2015,06,27,12,51,26.80
2015,06,27,12,52,26.70
2015,06,27,12,53,26.60
2015,06,27,12,54,26.50
2015,06,27,12,55,26.50
2015,06,27,12,56,26.50
2015,06,27,12,57,26.50
2015,06,27,12,58,26.40
2015,06,27,12,59,26.40
2015,06,27,13,00,26.40
2015,06,27,13,01,26.20
2015,06,27,13,02,26.20
2015,06,27,13,03,26.10
2015,06,27,13,04,26.00
2015,06,27,13,05,26.00
2015,06,27,13,06,25.90
2015,06,27,13,07,25.90
2015,06,27,13,08,25.80
2015,06,27,13,09,25.80
2015,06,27,13,10,25.80
2015,06,27,13,11,25.80
2015,06,27,13,12,25.80
2015,06,27,13,13,25.70
2015,06,27,13,14,25.60
2015,06,27,13,15,25.40
2015,06,27,13,16,25.30
2015,06,27,13,17,25.20
2015,06,27,13,18,25.20
2015,06,27,13,19,25.10
2015,06,27,13,20,25.00
2015,06,27,13,21,24.90
2015,06,27,13,22,24.90
2015,06,27,13,23,24.90
2015,06,27,13,24,24.90
2015,06,27,13,25,24.90
2015,06,27,13,26,24.80
2015,06,27,13,27,24.70
2015,06,27,13,28,24.60
2015,06,27,13,29,24.50
2015,06,27,13,30,24.50
2015,06,27,13,31,24.40
2015,06,27,13,32,24.30
2015,06,27,13,33,24.30
2015,06,27,13,34,24.30
2015,06,27,13,35,24.30
2015,06,27,13,36,24.30
2015,06,27,13,37,24.40
2015,06,27,13,38,24.40
2015,06,27,13,39,24.50
2015,06,27,13,40,24.60
2015,06,27,13,41,24.70
2015,06,27,13,42,24.80
2015,06,27,13,43,24.80
2015,06,27,13,44,24.80
2015,06,27,13,45,24.70
2015,06,27,13,46,24.70
2015,06,27,13,47,24.70
2015,06,27,13,48,24.70
2015,06,27,13,49,24.60
2015,06,27,13,50,24.70
2015,06,27,13,51,24.70
2015,06,27,13,52,24.80
2015,06,27,13,53,24.90
2015,06,27,13,54,25.00
2015,06,27,13,55,25.10
2015,06,27,13,56,25.10
2015,06,27,13,57,25.10
2015,06,27,13,58,25.10
2015,06,27,13,59,25.20
2015,06,27,14,00,25.30
2015,06,27,14,01,25.30
2015,06,27,14,02,25.40
2015,06,27,14,03,25.40
2015,06,27,14,04,25.40
2015,06,27,14,05,25.50
2015,06,27,14,06,25.40
2015,06,27,14,07,25.50
2015,06,27,14,08,25.50
2015,06,27,14,09,25.60
2015,06,27,14,10,25.70
2015,06,27,14,11,25.80
2015,06,27,14,12,25.80
2015,06,27,14,13,25.80
2015,06,27,14,14,25.80
2015,06,27,14,15,25.80
2015,06,27,14,16,25.80
2015,06,27,14,17,25.90
2015,06,27,14,18,25.90
2015,06,27,14,19,25.80
2015,06,27,14,20,25.80
2015,06,27,14,21,25.80
2015,06,27,14,22,25.80
2015,06,27,14,23,25.80
2015,06,27,14,24,25.70
2015,06,27,14,25,25.70
2015,06,27,14,26,25.60
2015,06,27,14,27,25.60
2015,06,27,14,28,25.60
2015,06,27,14,29,25.60
2015,06,27,14,30,25.70
2015,06,27,14,31,25.80
2015,06,27,14,32,25.80
2015,06,27,14,33,25.90
2015,06,27,14,34,26.00
2015,06,27,14,35,26.10
2015,06,27,14,36,26.10
2015,06,27,14,37,26.20
2015,06,27,14,38,26.30
2015,06,27,14,39,26.30
2015,06,27,14,40,26.40
2015,06,27,14,41,26.40
2015,06,27,14,42,26.50
2015,06,27,14,43,26.50
2015,06,27,14,44,26.60
2015,06,27,14,45,26.70
2015,06,27,14,46,26.80
2015,06,27,14,47,27.00
2015,06,27,14,48,27.20
2015,06,27,14,49,27.30
2015,06,27,14,50,27.30
2015,06,27,14,51,27.30
2015,06,27,14,52,27.40
2015,06,27,14,53,27.50
2015,06,27,14,54,27.50
2015,06,27,14,55,27.60
2015,06,27,14,56,27.70
2015,06,27,14,57,27.80
2015,06,27,14,58,27.80
2015,06,27,14,59,27.80
2015,06,27,15,00,27.80
2015,06,27,15,01,27.90
2015,06,27,15,02,27.90
2015,06,27,15,03,27.90
2015,06,27,15,04,27.90
2015,06,27,15,05,27.80
2015,06,27,15,06,27.80
2015,06,27,15,07,27.70
2015,06,27,15,08,27.70
2015,06,27,15,09,27.60
2015,06,27,15,10,27.60
2015,06,27,15,11,27.60
2015,06,27,15,12,27.70
2015,06,27,15,13,27.70
2015,06,27,15,14,27.80
2015,06,27,15,15,27.80
2015,06,27,15,16,27.70
2015,06,27,15,17,27.70
2015,06,27,15,18,27.80
2015,06,27,15,19,27.80
2015,06,27,15,20,27.80
2015,06,27,15,21,27.80
2015,06,27,15,22,27.80
2015,06,27,15,23,27.90
2015,06,27,15,24,27.90
2015,06,27,15,25,28.00
2015,06,27,15,26,28.00
2015,06,27,15,27,28.00
2015,06,27,15,28,28.10
2015,06,27,15,29,28.10
2015,06,27,15,30,28.20
2015,06,27,15,31,28.20
2015,06,27,15,32,28.20
2015,06,27,15,33,28.30
2015,06,27,15,34,28.30
2015,06,27,15,35,28.40
2015,06,27,15,36,28.40
2015,06,27,15,37,28.40
2015,06,27,15,38,28.50
2015,06,27,15,39,28.50
2015,06,27,15,40,28.60
2015,06,27,15,41,28.60
2015,06,27,15,42,28.60
2015,06,27,15,43,28.70
2015,06,27,15,44,28.70
2015,06,27,15,45,28.80
2015,06,27,15,46,28.80
2015,06,27,15,47,28.90
2015,06,27,15,48,28.90
2015,06,27,15,49,28.90
2015,06,27,15,50,28.90
2015,06,27,15,51,29.00
2015,06,27,15,52,29.00
2015,06,27,15,53,29.10
2015,06,27,15,54,29.20
2015,06,27,15,55,29.20
2015,06,27,15,56,29.30
2015,06,27,15,57,29.40
2015,06,27,15,58,29.60
2015,06,27,15,59,29.70
2015,06,27,16,00,29.70
2015,06,27,16,01,29.80
2015,06,27,16,02,29.80
2015,06,27,16,03,29.90
2015,06,27,16,04,30.00
2015,06,27,16,05,30.10
2015,06,27,16,06,30.00
2015,06,27,16,07,30.00
2015,06,27,16,08,29.90
2015,06,27,16,09,29.90
2015,06,27,16,10,29.90
2015,06,27,16,11,29.90
2015,06,27,16,12,29.90
2015,06,27,16,13,29.90
2015,06,27,16,14,30.00
2015,06,27,16,15,30.00
2015,06,27,16,16,30.00
2015,06,27,16,17,30.00
2015,06,27,16,18,29.90
2015,06,27,16,19,29.90
2015,06,27,16,20,29.80
2015,06,27,16,21,29.80
2015,06,27,16,22,29.70
2015,06,27,16,23,29.70
2015,06,27,16,24,29.60
2015,06,27,16,25,29.70
2015,06,27,16,26,29.70
2015,06,27,16,27,29.70
2015,06,27,16,28,29.60
2015,06,27,16,29,29.60
2015,06,27,16,30,29.50
2015,06,27,16,31,29.50
2015,06,27,16,32,29.40
2015,06,27,16,33,29.30
2015,06,27,16,34,29.30
2015,06,27,16,35,29.20
2015,06,27,16,36,29.30
2015,06,27,16,37,29.30
2015,06,27,16,38,29.30
2015,06,27,16,39,29.30
2015,06,27,16,40,29.30
2015,06,27,16,41,29.30
2015,06,27,16,42,29.40
2015,06,27,16,43,29.40
2015,06,27,16,44,29.40
2015,06,27,16,45,29.30
2015,06,27,16,46,29.30
2015,06,27,16,47,29.20
2015,06,27,16,48,29.10
2015,06,27,16,49,29.00
2015,06,27,16,50,28.90
2015,06,27,16,51,28.90
2015,06,27,16,52,28.80
2015,06,27,16,53,28.80
2015,06,27,16,54,28.80
2015,06,27,16,55,28.80
2015,06,27,16,56,28.80
2015,06,27,16,57,28.70
2015,06,27,16,58,28.70
2015,06,27,16,59,28.70
2015,06,27,17,00,28.70
2015,06,27,17,01,28.70
2015,06,27,17,02,28.70
2015,06,27,17,03,28.70
2015,06,27,17,04,28.70
2015,06,27,17,05,28.70
2015,06,27,17,06,28.70
2015,06,27,17,07,28.70
2015,06,27,17,08,28.70
2015,06,27,17,09,28.70
2015,06,27,17,10,28.60
2015,06,27,17,11,28.60
2015,06,27,17,12,28.50
2015,06,27,17,13,28.40
2015,06,27,17,14,28.40
2015,06,27,17,15,28.40
2015,06,27,17,16,28.40
2015,06,27,17,17,28.40
2015,06,27,17,18,28.40
2015,06,27,17,19,28.40